This demonstration page uses our WeatherBlox Daily Observations layout. Learn more.

Left ArrowRight Arrow

Hourly Observations for January 4, 2017

Temp ( °F °C ) Dew Point ( °F °C ) Humidity (%) Winds ( mph kmh ) Pressure ( in mb ) Visibility ( mi km ) Precip ( " mm )
12:15 am 00:15 Cloudy with Fog 45 7 45 7 100 100 Calm 29.53 1000 0.5 0.80467 0 0
12:35 am 00:35 Cloudy with Fog 45 7 45 7 100 100 Calm 29.53 1000 0.5 0.80467 0 0
12:55 am 00:55 Cloudy with Fog 45 7 45 7 100 100 Calm 29.53 1000 0.5 0.80467 0 0
1:15 am 01:15 Cloudy with Fog 45 7 45 7 100 100 Calm 29.53 1000 0.5 0.80467 0 0
1:35 am 01:35 Cloudy with Fog 45 7 45 7 100 100 Calm 29.53 1000 0.5 0.80467 0 0
1:55 am 01:55 Cloudy with Fog 45 7 45 7 100 100 Calm 29.53 1000 0.5 0.80467 0 0
2:15 am 02:15 Cloudy with Fog 45 7 45 7 100 100 Calm 29.53 1000 0.5 0.80467 0 0
2:35 am 02:35 Cloudy with Fog 45 7 45 7 100 100 Calm 29.53 1000 0.25 0.402335 0 0
2:55 am 02:55 Cloudy with Fog 45 7 45 7 100 100 Calm 29.53 1000 0.25 0.402335 0 0
3:15 am 03:15 Cloudy with Fog 45 7 45 7 100 100 WSW 3 6 29.56 1001 0.25 0.402335 0 0
3:35 am 03:35 Cloudy with Fog 45 7 45 7 100 100 SSW 3 6 29.56 1001 0.25 0.402335 0 0
3:55 am 03:55 Cloudy with Mist and Fog 45 7 45 7 100 100 Calm 29.56 1001 0.75 1.207005 0 0
4:15 am 04:15 Cloudy with Fog 45 7 45 7 100 100 SW 3 6 29.56 1001 0.5 0.80467 0 0
4:35 am 04:35 Cloudy with Fog 45 7 45 7 100 100 Calm 29.56 1001 0.25 0.402335 0 0
4:55 am 04:55 Cloudy with Fog 43 6 43 6 100 100 WNW 5 7 29.56 1001 0.25 0.402335 0 0
5:15 am 05:15 Cloudy with Fog 43 6 43 6 100 100 S 5 7 29.56 1001 0.25 0.402335 0.01 0.254
5:35 am 05:35 Mostly Cloudy 43 6 43 6 100 100 Calm 29.56 1001 10 16.0934 0.01 0.254
5:57 am 05:57 Mostly Cloudy 43 6 43 6 100 100 SSW 3 6 29.56 1001 10 16.0934 0.01 0.254
6:16 am 06:16 Partly Cloudy with Mist and Fog 43 6 43 6 100 100 SSW 3 6 29.56 1001 5 8.0467 0 0
6:35 am 06:35 Partly Cloudy with Mist and Fog 41 5 41 5 100 100 Calm 29.62 1003 3 4.82802 0 0
6:55 am 06:55 Cloudy 41 5 41 5 100 100 WSW 3 6 29.62 1003 10 16.0934 0 0
7:15 am 07:15 Partly Cloudy 45 7 45 7 100 100 NNW 14 22 29.53 1000 10 16.0934 0 0
7:55 am 07:55 Partly Cloudy 46 8 46 8 100 100 Calm 29.56 1001 10 16.0934 0 0
8:15 am 08:15 Partly Cloudy 48 9 48 9 100 100 SSW 3 6 29.59 1002 10 16.0934 0 0
8:56 am 08:56 Mostly Cloudy 52 11 48 9 88 88 W 8 13 29.59 1002 10 16.0934 0 0
9:16 am 09:16 Cloudy 52 11 48 9 88 88 W 6 9 29.59 1002 10 16.0934 0 0
9:35 am 09:35 Cloudy 52 11 50 10 94 94 WSW 7 11 29.62 1003 10 16.0934 0 0
9:55 am 09:55 Cloudy 54 12 50 10 88 88 W 8 13 29.62 1003 10 16.0934 0 0
10:15 am 10:15 Partly Cloudy 55 13 48 9 77 77 W 18 30 29.65 1004 10 16.0934 0 0
10:35 am 10:35 Mostly Cloudy 54 12 46 8 77 77 WNW 17 28 29.65 1004 10 16.0934 0 0
10:57 am 10:57 Mostly Cloudy 54 12 45 7 72 72 WNW 13 20 29.65 1004 10 16.0934 0 0
11:15 am 11:15 Partly Cloudy 54 12 43 6 67 67 W 12 19 29.65 1004 10 16.0934 0 0
11:35 am 11:35 Sunny 54 12 39 4 58 58 WNW 15 24 29.65 1004 10 16.0934 0 0
11:57 am 11:57 Partly Cloudy 54 12 37 3 54 54 WNW 15 24 29.65 1004 10 16.0934 0 0
12:15 pm 12:15 Mostly Cloudy 54 12 39 4 58 58 WNW 21 33 29.65 1004 10 16.0934 0 0
12:35 pm 12:35 Partly Cloudy 55 13 36 2 47 47 WNW 20 31 29.62 1003 10 16.0934 0 0
12:55 pm 12:55 Sunny 54 12 36 2 51 51 WNW 24 39 29.65 1004 10 16.0934 0 0
1:15 pm 13:15 Sunny 54 12 34 1 47 47 WNW 17 28 29.65 1004 10 16.0934 0 0
1:35 pm 13:35 Sunny 54 12 36 2 51 51 WNW 15 24 29.65 1004 10 16.0934 0 0
1:55 pm 13:55 Sunny 54 12 34 1 47 47 NW 18 30 29.65 1004 10 16.0934 0 0
2:15 pm 14:15 Sunny 54 12 32 0 44 44 W 23 37 29.65 1004 10 16.0934 0 0
2:36 pm 14:36 Sunny 52 11 25 -4 35 35 W 32 52 29.68 1005 10 16.0934 0 0
2:55 pm 14:55 Sunny 52 11 25 -4 35 35 W 24 39 29.68 1005 10 16.0934 0 0
3:15 pm 15:15 Sunny 52 11 25 -4 35 35 W 18 30 29.68 1005 10 16.0934 0 0
3:35 pm 15:35 Sunny 52 11 25 -4 35 35 WNW 18 30 29.68 1005 10 16.0934 0 0
3:55 pm 15:55 Sunny 50 10 23 -5 35 35 W 20 31 29.68 1005 10 16.0934 0 0
4:15 pm 16:15 Sunny 48 9 21 -6 34 34 WNW 20 31 29.71 1006 10 16.0934 0 0
4:35 pm 16:35 Sunny 46 8 21 -6 37 37 WNW 17 28 29.71 1006 10 16.0934 0 0
4:55 pm 16:55 Sunny 46 8 21 -6 37 37 WNW 15 24 29.71 1006 10 16.0934 0 0
5:55 pm 17:55 Clear 43 6 16 -9 34 34 W 21 33 29.77 1008 10 16.0934 0 0
6:15 pm 18:15 Clear 43 6 16 -9 34 34 WNW 12 19 29.8 1009 10 16.0934 0 0
6:35 pm 18:35 Clear 41 5 16 -9 36 36 WNW 14 22 29.8 1009 10 16.0934 0 0
6:55 pm 18:55 Clear 39 4 16 -9 39 39 WNW 14 22 29.83 1010 10 16.0934 0 0
7:15 pm 19:15 Clear 39 4 16 -9 39 39 WNW 10 17 29.83 1010 10 16.0934 0 0
7:55 pm 19:55 Clear 39 4 16 -9 39 39 NW 14 22 29.85 1011 10 16.0934 0 0
8:15 pm 20:15 Clear 37 3 16 -9 41 41 WNW 10 17 29.85 1011 10 16.0934 0 0
8:35 pm 20:35 Clear 37 3 16 -9 41 41 WNW 12 19 29.85 1011 10 16.0934 0 0
8:55 pm 20:55 Clear 37 3 16 -9 41 41 W 9 15 29.88 1012 10 16.0934 0 0
9:15 pm 21:15 Clear 36 2 16 -9 44 44 W 13 20 29.88 1012 10 16.0934 0 0
9:55 pm 21:55 Clear 36 2 16 -9 44 44 WNW 7 11 29.91 1013 10 16.0934 0 0
10:15 pm 22:15 Clear 36 2 16 -9 44 44 WNW 9 15 29.91 1013 10 16.0934 0 0
10:35 pm 22:35 Clear 34 1 16 -9 48 48 NW 10 17 29.91 1013 10 16.0934 0 0
10:55 pm 22:55 Clear 34 1 14 -10 44 44 WNW 15 24 29.91 1013 10 16.0934 0 0
11:15 pm 23:15 Clear 34 1 14 -10 44 44 WNW 17 28 29.94 1014 10 16.0934 0 0
11:35 pm 23:35 Clear 34 1 12 -11 41 41 WNW 14 22 29.94 1014 10 16.0934 0 0
11:55 pm 23:55 Clear 34 1 12 -11 41 41 WNW 14 22 29.94 1014 10 16.0934 0 0

Powered by AerisWeather